Dewpoint
43 44 46 46 48 50 48 49 50 50 51 52 52 53 54 54 52 52 53 53 53 54 54 53 53 53 54 54 55 55 56 57 59 59 58 59 58 58 61 60 60 60 61 61 60 58 56 55 55 58 59 59 60 59 59 58 59 59 60 60 60 61 61
45 47 49 51 49 50 49 48 49 49 50 51 52 53 53 53 54 52 52 52 52 53 54 52 52 52 52 52 53 53 54 55 56 57 57 56 57 57 58 58 60 60 60 60 60 59 57 55 55 56 56 58 59 59 60 60 59 60 60 60 59 59 61
48 47 47 48 47 46 48 48 48 49 50 51 51 51 51 51 51 52 51 51 52 53 53 51 51 51 51 51 52 52 53 53 54 55 54 55 55 56 56 57 56 57 58 58 59 59 59 58 56 57 57 56 56 58 59 60 60 60 59 59 60 59 59
47 46 46 46 47 46 47 47 48 49 50 50 51 51 51 51 52 53 51 51 52 54 52 50 50 50 51 51 51 51 51 51 52 52 52 53 54 53 54 55 54 55 55 55 56 57 57 56 56 56 56 56 56 57 59 60 60 59 59 60 59 59 59
47 46 45 46 47 46 47 47 47 48 50 50 49 50 50 50 51 51 52 50 51 49 50 50 50 50 50 50 50 50 50 50 51 52 51 51 51 52 52 53 54 55 55 54 55 57 56 56 56 55 56 57 57 57 57 59 59 59 59 58 59 59 59
47 46 45 45 47 47 47 47 47 48 49 50 49 49 49 49 50 48 48 49 50 50 50 49 49 49 49 49 49 49 49 49 49 49 49 50 50 50 51 52 52 53 52 54 55 54 55 56 57 55 55 58 56 56 57 59 59 59 59 59 59 58 58
46 46 45 45 47 47 47 47 48 49 50 50 50 49 50 50 50 50 49 49 50 50 49 49 49 49 49 48 48 48 48 48 49 49 49 49 49 50 51 51 51 51 52 52 53 53 53 53 53 53 53 55 56 55 56 58 59 57 60 60 59 59 59
46 46 45 46 47 46 46 47 48 48 49 49 50 50 51 49 49 48 49 49 48 48 48 48 48 47 48 47 48 48 49 48 47 49 48 47 48 48 48 49 49 50 51 51 52 51 51 51 51 52 52 51 53 54 53 56 57 58 55 59 58 58 59
48 46 45 47 47 47 47 47 48 48 49 49 49 50 50 49 48 49 50 48 48 48 48 47 47 47 47 46 46 46 47 50 46 46 47 47 47 47 47 47 47 47 49 48 49 49 50 51 52 52 52 52 50 49 52 52 55 54 58 55 61 61 61
47 45 44 45 46 47 47 47 47 48 48 48 49 50 49 48 48 49 48 48 47 47 47 47 46 46 46 45 45 45 46 47 48 46 47 46 47 47 47 46 46 46 47 48 48 48 48 50 51 51 50 51 50 49 49 50 50 50 53 58 55 60 60
48 46 45 45 46 46 47 47 46 47 47 48 49 50 49 48 49 52 48 47 47 46 47 46 46 45 45 45 45 45 46 46 45 45 46 47 46 47 47 45 45 45 46 47 47 47 47 48 49 49 49 50 51 50 50 49 49 51 52 57 58 57 58
48 48 46 45 46 45 46 46 46 46 47 48 50 49 48 48 49 47 47 47 46 46 45 46 46 45 44 44 46 45 45 45 45 45 45 46 46 46 45 44 45 45 46 46 46 46 47 47 47 47 48 49 49 50 50 49 47 50 53 53 56 58 58
47 47 47 45 46 45 45 46 46 46 46 49 48 48 48 48 48 47 47 46 45 45 45 45 44 44 44 44 44 44 44 45 44 44 45 45 45 45 44 44 44 44 45 45 45 46 46 46 47 47 47 48 48 49 50 49 48 47 50 51 52 54 57
47 47 46 46 46 46 45 47 46 46 47 48 48 47 48 48 47 47 46 46 45 45 44 44 44 44 44 43 44 44 44 44 44 44 45 44 44 44 44 44 44 44 45 45 45 45 45 45 46 47 47 47 47 48 48 48 47 47 48 52 53 53 56
48 47 46 46 46 46 45 46 46 47 47 47 47 47 47 47 47 46 45 44 44 43 43 43 43 43 43 43 43 44 44 43 43 43 43 42 43 44 44 43 43 44 44 44 45 43 43 44 44 44 45 46 46 47 49 46 46 46 45 47 51 54 55
48 47 46 46 46 46 46 46 47 46 46 46 47 47 46 46 45 44 44 43 43 43 43 43 43 43 43 43 42 42 43 43 42 43 42 42 42 42 43 44 43 43 44 44 44 44 44 44 44 43 45 46 46 46 46 46 45 44 45 45 48 49 53
48 47 46 46 46 46 46 46 47 46 46 46 46 46 45 44 44 43 44 43 43 42 42 43 43 42 42 42 42 42 42 42 42 42 42 42 41 42 43 43 43 43 43 43 42 43 43 44 44 43 44 45 46 45 46 46 46 44 44 45 46 47 49
48 47 46 46 46 46 46 46 47 46 45 45 45 45 45 44 43 43 43 42 42 42 42 42 42 42 42 42 42 42 42 41 41 41 42 42 43 43 43 42 42 42 43 42 43 42 42 43 41 41 41 42 42 44 45 45 45 46 45 44 44 45 47
48 47 47 46 46 46 46 46 46 46 45 45 45 44 44 43 43 42 42 41 41 41 41 41 41 41 41 42 42 42 42 42 42 41 41 41 41 42 42 41 40 41 41 41 41 41 42 41 40 41 41 40 40 42 43 44 46 45 44 43 43 43 46
48 48 47 46 46 46 46 46 46 45 45 44 44 43 43 43 43 41 41 40 40 41 41 41 40 40 40 40 40 41 41 41 40 41 40 40 41 41 40 39 40 40 40 40 40 39 39 40 40 41 40 40 39 39 40 41 41 41 42 42 42 43 44
48 48 48 46 47 46 46 46 45 45 45 44 43 43 42 42 42 40 40 40 40 42 40 40 39 40 41 40 42 41 40 40 40 39 39 39 39 39 39 39 39 39 40 40 40 39 40 40 40 39 39 40 39 39 38 39 39 39 40 40 41 41 43
48 48 47 47 47 47 46 45 45 45 45 44 44 43 41 41 40 40 40 41 41 41 40 40 40 40 40 40 39 39 39 38 38 39 38 38 38 39 39 39 39 39 41 42 41 41 41 41 40 39 39 39 39 39 38 38 38 38 39 39 39 41 41
48 47 47 47 46 46 46 45 45 44 44 43 42 41 41 40 40 39 40 40 40 40 40 40 44 40 41 41 40 39 39 39 38 38 38 38 38 38 38 38 40 41 41 41 40 40 39 39 40 40 39 39 39 38 37 37 36 36 36 36 37 39 40
48 47 47 47 47 46 46 46 45 45 43 42 41 41 40 39 39 39 39 39 38 39 39 40 39 38 38 38 39 38 38 38 38 38 38 37 37 37 37 37 38 39 40 40 40 39 38 38 38 38 38 39 39 39 37 36 36 36 35 35 35 37 38
47 47 47 46 46 46 46 45 43 43 43 42 41 40 39 38 39 38 38 37 37 38 38 40 38 37 37 37 38 40 38 37 37 36 36 36 36 36 36 36 37 38 38 38 38 38 38 38 37 37 37 36 36 37 37 38 37 36 36 35 34 35 36
47 46 46 46 46 46 45 44 43 43 42 41 41 39 38 38 37 38 37 36 36 38 37 39 37 37 37 37 37 37 36 36 36 36 35 35 35 35 35 35 35 36 36 38 38 37 37 37 38 37 37 37 37 36 35 35 36 38 37 36 35 35 35
46 46 46 46 46 45 45 44 43 43 42 41 39 39 38 37 37 37 36 36 36 36 35 37 37 36 36 36 35 36 36 35 35 35 35 35 34 34 34 34 34 34 35 35 36 36 36 36 36 36 36 36 36 37 36 36 36 36 37 38 37 36 37
46 46 46 46 45 44 44 42 42 42 41 40 39 37 37 36 37 37 36 35 34 34 34 36 36 35 35 35 35 35 35 35 35 35 35 34 34 34 33 34 34 33 34 34 35 35 35 35 35 35 35 35 35 35 36 35 35 36 36 37 37 37 37
46 46 46 45 44 43 43 42 42 42 41 40 39 38 37 37 37 35 35 34 33 31 32 35 35 35 35 35 35 36 35 34 34 34 33 34 33 33 33 33 33 33 33 33 34 34 35 35 34 34 34 34 34 34 35 35 36 36 36 36 36 36 36
46 46 46 45 44 44 43 42 41 40 39 38 37 36 36 36 36 35 34 33 31 29 29 34 35 35 35 35 35 34 34 34 33 33 33 33 33 33 33 33 33 32 33 33 34 34 34 35 34 34 33 33 34 34 34 35 35 35 36 36 35 35 35
46 46 46 45 44 43 42 42 41 41 39 37 37 36 36 36 35 35 34 32 30 28 29 32 35 35 35 35 35 34 33 33 32 32 32 32 33 33 33 35 35 33 33 33 34 33 33 33 31 32 32 32 32 33 33 34 35 35 35 35 35 35 35
46 45 45 44 43 42 42 41 41 41 41 40 38 38 37 36 34 34 34 32 36 31 29 31 35 35 35 35 36 34 33 32 31 31 31 31 32 32 32 33 34 34 33 33 33 33 33 33 31 31 31 31 30 30 31 33 33 33 34 34 34 34 35
46 46 44 43 43 43 42 41 41 41 40 39 38 38 38 35 34 34 33 34 34 34 30 30 34 34 35 35 35 35 33 32 31 29 30 30 31 32 32 32 33 33 33 33 33 33 33 33 32 31 31 30 30 29 31 31 32 32 33 33 33 35 35
46 46 44 44 43 43 42 41 40 40 38 37 37 36 36 34 33 33 33 33 32 32 32 31 32 34 34 35 34 34 32 32 31 30 30 30 30 30 31 31 32 33 33 33 33 33 33 33 33 33 31 31 31 31 32 31 31 33 32 32 32 32 32
46 45 45 44 42 42 43 42 41 40 39 37 35 34 34 33 32 32 32 32 32 31 32 36 33 34 34 34 34 34 33 32 33 31 31 30 30 31 31 31 32 33 33 33 33 33 33 33 33 33 31 32 33 33 32 32 31 31 31 31 31 32 32
45 44 43 42 41 41 41 41 39 38 36 35 34 33 33 33 32 31 31 31 31 31 31 32 34 35 34 34 33 33 33 33 33 33 31 30 31 31 32 32 32 33 33 33 33 33 33 33 33 33 32 33 33 33 33 33 32 31 31 30 31 31 31
43 43 43 42 41 40 39 38 37 36 35 34 33 32 31 31 31 31 31 31 31 31 31 30 31 33 33 32 33 33 33 32 33 32 32 31 32 32 32 32 32 32 33 33 33 33 33 33 33 33 33 33 33 33 33 33 33 32 32 31 31 31 31